Regional Weather Roundup
Issued by NWS

Home | Current Version | Previous Version | Text Only | Print | Product List | Glossary On
Versions: 1 2 3 4 5 6 7 8 9 10 11 12 13 14 15 16 17 18 19 20 21 22 23 24 25 26 27 28 29 30 31 32 33 34 35 36 37 38 39 40 41 42 43 44 45 46 47 48 49 50
000
ASUS44 KJAN 062010
RWRMS

MISSISSIPPI HOURLY WEATHER ROUNDUP
NATIONAL WEATHER SERVICE JACKSON MS
300 PM CDT FRI MAY 06 2016

NOTE: "FAIR: INDICATES FEW OR NO CLOUDS BELOW 12,000 FEET WITH NO
SIGNIFICANT WEATHER AND/OR OBSTRUCTIONS TO VISIBILITY.

MSZ001>002-007>008-010>013-018>021-025>028-034>036-062100-
NORTHWEST MISSISSIPPI

CITY           SKY/WX    TMP DP  RH WIND       PRES   REMARKS
BATESVILLE     FAIR      73  43  33 NW3       30.07F
CLEVELAND      FAIR      73  48  41 N9        30.07F
GREENWOOD      SUNNY     74  43  32 VRB6      30.06F
GREENVILLE     SUNNY     73  45  36 NW12      30.07F
OLIVE BRANCH   MOSUNNY   72  46  40 NW10      30.06F
OXFORD         FAIR      72  43  35 N8        30.07F
TUNICA         CLEAR     70  46  43 NW8G16    30.07F
WINONA         FAIR      72  46  40 N8        30.05F
$$

MSZ003>006-009-014>017-022>024-029>033-037>039-062100-
NORTHEAST MISSISSIPPI

CITY           SKY/WX    TMP DP  RH WIND       PRES   REMARKS
COLUMBUS AFB   MOSUNNY   73  51  46 N7G18     30.02F
CORINTH        FAIR      72  43  35 N9G15     30.03F
GOLDN TRIANGLE MOSUNNY   75  46  35 N14       30.04F
STARKVILLE     FAIR      72  45  37 N5        30.03F
TUPELO         MOSUNNY   73  41  31 NW12      30.03F
$$

MSZ040-058-062100-
CENTRAL MISSISSIPPI

CITY           SKY/WX    TMP DP  RH WIND       PRES   REMARKS
JACKSON INTL   MOSUNNY   73  44  35 VRB6      30.05F
JACKSON HAWKNS SUNNY     72  46  39 VRB5      30.07F
MADISON        FAIR      70  46  43 CALM      30.06F
MERIDIAN KEY   SUNNY     73  44  35 N12       30.03F
MERIDIAN NAS   MOSUNNY   74  42  31 VRB7      30.03F
VICKSBURG TVR  SUNNY     75  45  34 N9G20     30.08F
VICKSBURG VKS  CLEAR     73  46  38 VRB3G12   30.08F
$$

MSZ059>079-062100-
SOUTH MISSISSIPPI

CITY           SKY/WX    TMP DP  RH WIND       PRES   REMARKS
BROOKHAVEN     FAIR     N/A N/A N/A N9        30.07F
COLUMBIA       FAIR      73  46  38 VRB5G14   30.08F
HATTIESBURG    SUNNY     75  46  35 MISG      30.04F
LAUREL         FAIR      73  45  35 N7        30.04F
MCCOMB         SUNNY     75  45  34 NW13      30.05F
NATCHEZ        SUNNY     73  45  35 NW10      30.07F
PINE BELT      SUNNY     73  45  35 N7        30.05F
$$

MSZ080>082-062100-
COASTAL MISSISSIPPI

CITY           SKY/WX    TMP DP  RH WIND       PRES   REMARKS
BAY ST LOUIS   SUNNY     73  39  29 N7        30.03F
BILOXI         SUNNY     75  45  33 N2        30.00F
PASCAGOULA     SUNNY     75  47  36 VRB7G20   30.01F
GULFPORT       SUNNY     76  45  33 N13G22    30.00F
$$




USA.gov is the U.S. government's official web portal to all federal, state and local government web resources and services.